May 5 Louisiana TAGA Results above Detection Limit,,,,,
Date_Time,Benzene Avg. (ppb),Toluene Avg. (ppb),Xylene Avg. (ppb),Latitude,Longitude
5/5/2010 3:21:46 PM,4.672,0.000,0.058,30.173470,-89.731630
5/5/2010 3:27:21 PM,4.932,0.000,0.042,30.134306,-89.760077
5/5/2010 2:55:51 PM,0.889,0.979,0.682,30.284680,-89.747479
5/5/2010 2:55:52 PM,1.023,0.960,0.769,30.284680,-89.747479
5/5/2010 2:56:06 PM,1.023,0.313,0.685,30.284680,-89.747479
5/5/2010 2:56:08 PM,1.321,1.254,0.656,30.284680,-89.747479
5/5/2010 2:56:09 PM,0.425,1.459,0.711,30.284680,-89.747479
5/5/2010 2:56:10 PM,1.023,0.147,0.698,30.284680,-89.747479
5/5/2010 2:56:11 PM,1.139,1.126,0.669,30.284680,-89.747479
5/5/2010 2:56:43 PM,0.945,0.793,0.672,30.284834,-89.746909
5/5/2010 2:56:44 PM,1.929,2.860,0.986,30.284840,-89.746842
5/5/2010 2:56:45 PM,1.613,2.968,1.303,30.284845,-89.746772
5/5/2010 2:56:46 PM,1.631,1.401,1.135,30.284851,-89.746699
5/5/2010 2:56:47 PM,1.371,0.921,0.766,30.284855,-89.746624
5/5/2010 2:56:48 PM,0.569,1.714,0.672,30.284859,-89.746548
5/5/2010 2:56:52 PM,0.840,1.567,0.705,30.284870,-89.746216
5/5/2010 2:56:53 PM,1.476,1.675,1.335,30.284871,-89.746130
5/5/2010 2:56:54 PM,2.449,1.548,1.393,30.284871,-89.746043
5/5/2010 2:56:55 PM,1.747,2.469,1.778,30.284871,-89.745955
5/5/2010 2:56:56 PM,1.785,3.076,1.901,30.284871,-89.745868
5/5/2010 2:56:57 PM,2.200,3.301,2.027,30.284871,-89.745780
5/5/2010 2:56:58 PM,0.773,1.273,1.568,30.284870,-89.745692
5/5/2010 2:56:59 PM,0.503,1.273,1.274,30.284869,-89.745604
5/5/2010 2:57:00 PM,1.581,1.087,1.228,30.284868,-89.745517
5/5/2010 2:57:01 PM,0.840,0.960,1.128,30.284868,-89.745429
5/5/2010 2:57:02 PM,2.565,0.960,1.387,30.284867,-89.745341
5/5/2010 2:57:03 PM,1.111,1.234,1.419,30.284866,-89.745253
5/5/2010 2:57:04 PM,1.525,1.842,1.752,30.284866,-89.745165
5/5/2010 2:57:05 PM,1.033,2.341,1.536,30.284866,-89.745077
5/5/2010 2:57:06 PM,0.917,1.420,1.089,30.284866,-89.744988
5/5/2010 2:57:07 PM,1.398,0.793,1.212,30.284866,-89.744900
5/5/2010 2:57:08 PM,0.387,0.793,0.685,30.284866,-89.744810
5/5/2010 2:57:09 PM,0.155,0.813,0.695,30.284865,-89.744719
5/5/2010 2:57:10 PM,0.425,0.813,0.763,30.284865,-89.744628
5/5/2010 2:57:11 PM,0.425,1.087,0.915,30.284865,-89.744537
5/5/2010 2:57:12 PM,0.541,0.793,0.685,30.284865,-89.744445
5/5/2010 2:58:30 PM,0.453,0.627,0.666,30.286533,-89.736814
5/5/2010 2:58:31 PM,0.271,1.146,0.792,30.286552,-89.736748
5/5/2010 2:58:32 PM,0.829,0.774,1.025,30.286572,-89.736678
5/5/2010 2:58:45 PM,1.216,0.441,0.989,30.286900,-89.735529
5/5/2010 2:58:46 PM,0.917,1.215,1.148,30.286929,-89.735433
5/5/2010 2:58:47 PM,1.631,0.460,0.792,30.286957,-89.735336
5/5/2010 2:58:48 PM,1.293,0.960,1.038,30.286985,-89.735240
5/5/2010 2:58:49 PM,1.631,1.675,1.338,30.287013,-89.735143
5/5/2010 2:58:50 PM,1.293,2.283,1.545,30.287041,-89.735046
5/5/2010 2:58:51 PM,2.709,1.773,1.429,30.287068,-89.734949
5/5/2010 2:58:52 PM,1.824,0.480,0.957,30.287096,-89.734852
5/5/2010 2:58:53 PM,1.631,0.921,0.847,30.287124,-89.734755
5/5/2010 2:58:55 PM,1.631,0.901,1.086,30.287179,-89.734558
5/5/2010 2:58:56 PM,1.581,1.234,1.225,30.287207,-89.734460
5/5/2010 2:58:57 PM,1.033,0.441,0.928,30.287235,-89.734359
5/5/2010 2:58:59 PM,0.271,1.440,0.724,30.287292,-89.734161
5/5/2010 2:59:01 PM,1.774,0.774,0.676,30.287349,-89.733966
5/5/2010 2:59:03 PM,0.735,0.627,0.692,30.287405,-89.733768
5/5/2010 2:59:07 PM,0.724,1.068,0.805,30.287520,-89.733361
5/5/2010 2:59:13 PM,0.801,0.480,0.818,30.287703,-89.732725
5/5/2010 2:59:14 PM,0.348,2.086,0.908,30.287734,-89.732617
5/5/2010 2:59:15 PM,1.996,0.813,0.954,30.287765,-89.732508
5/5/2010 2:59:25 PM,0.868,0.460,0.692,30.288082,-89.731396
5/5/2010 2:59:26 PM,1.100,2.341,2.050,30.288114,-89.731284
5/5/2010 2:59:27 PM,0.773,1.714,1.720,30.288146,-89.731172
5/5/2010 2:59:28 PM,0.271,0.901,0.818,30.288177,-89.731062
5/5/2010 2:59:29 PM,0.569,0.646,0.789,30.288209,-89.730952
5/5/2010 2:59:30 PM,0.840,1.420,0.847,30.288240,-89.730843
5/5/2010 2:59:31 PM,1.371,0.754,1.002,30.288272,-89.730734
5/5/2010 2:59:32 PM,0.879,1.107,1.112,30.288303,-89.730625
5/5/2010 2:59:33 PM,1.255,1.606,0.979,30.288334,-89.730516
5/5/2010 2:59:34 PM,0.580,0.607,0.928,30.288365,-89.730406
5/5/2010 2:59:35 PM,1.061,0.166,0.663,30.288396,-89.730295
5/5/2010 2:59:37 PM,0.984,0.294,0.727,30.288460,-89.730073
5/5/2010 3:00:00 PM,0.608,0.793,0.908,30.288917,-89.728482
5/5/2010 3:00:01 PM,1.100,1.509,1.067,30.288917,-89.728482
5/5/2010 3:00:02 PM,0.889,3.703,3.058,30.288917,-89.728482
5/5/2010 3:00:03 PM,2.393,12.734,8.492,30.288917,-89.728482
5/5/2010 3:00:04 PM,2.819,15.968,10.147,30.288917,-89.728482
5/5/2010 3:00:05 PM,3.156,22.382,10.222,30.288917,-89.728482
5/5/2010 3:00:06 PM,1.420,10.560,6.592,30.288917,-89.728482
5/5/2010 3:00:07 PM,2.084,3.781,2.182,30.288917,-89.728482
5/5/2010 3:00:08 PM,1.188,2.929,1.578,30.288917,-89.728482
5/5/2010 3:00:09 PM,1.697,1.695,1.610,30.288917,-89.728482
5/5/2010 3:00:10 PM,0.995,2.616,2.166,30.288917,-89.728482
5/5/2010 3:00:12 PM,1.487,6.102,3.973,30.288917,-89.728482
5/5/2010 3:00:13 PM,1.641,6.984,4.775,30.288917,-89.728482
5/5/2010 3:00:14 PM,1.824,8.160,5.340,30.288917,-89.728482
5/5/2010 3:00:15 PM,0.657,9.658,5.434,30.288917,-89.728482
5/5/2010 3:00:16 PM,1.216,9.364,4.726,30.288917,-89.728482
5/5/2010 3:00:17 PM,0.657,7.464,4.164,30.288917,-89.728482
5/5/2010 3:00:18 PM,1.371,6.710,3.401,30.288917,-89.728482
5/5/2010 3:00:19 PM,1.863,6.044,3.375,30.288917,-89.728482
5/5/2010 3:00:20 PM,1.371,5.848,2.987,30.288917,-89.728481
5/5/2010 3:00:21 PM,0.464,2.929,2.176,30.288919,-89.728474
5/5/2010 3:00:22 PM,0.956,1.548,1.539,30.288925,-89.728455
5/5/2010 3:00:23 PM,1.465,2.527,1.135,30.288933,-89.728427
5/5/2010 3:00:24 PM,0.348,1.734,0.708,30.288944,-89.728388
5/5/2010 3:00:38 PM,0.155,0.166,0.669,30.289270,-89.727250
5/5/2010 3:00:39 PM,0.348,0.666,0.879,30.289299,-89.727147
5/5/2010 3:01:47 PM,0.453,3.722,0.207,30.291274,-89.720151
5/5/2010 3:01:48 PM,0.232,11.569,0.252,30.291272,-89.720086
5/5/2010 3:01:49 PM,0.829,13.949,0.281,30.291266,-89.720028
5/5/2010 3:01:50 PM,0.271,22.706,0.630,30.291254,-89.719977
5/5/2010 3:01:51 PM,0.415,31.884,0.740,30.291239,-89.719932
5/5/2010 3:01:52 PM,0.569,33.570,0.837,30.291220,-89.719890
5/5/2010 3:01:53 PM,0.647,66.502,1.794,30.291199,-89.719853
5/5/2010 3:01:54 PM,0.569,154.816,3.488,30.291171,-89.719813
5/5/2010 3:01:55 PM,0.973,188.373,4.132,30.291137,-89.719774
5/5/2010 3:01:56 PM,0.608,247.705,6.527,30.291096,-89.719737
5/5/2010 3:01:57 PM,0.039,295.780,6.880,30.291048,-89.719702
5/5/2010 3:01:58 PM,0.492,278.473,6.605,30.290994,-89.719665
5/5/2010 3:01:59 PM,1.244,158.586,3.543,30.290930,-89.719626
5/5/2010 3:02:00 PM,0.387,116.781,2.379,30.290857,-89.719584
5/5/2010 3:02:01 PM,0.453,56.626,1.452,30.290778,-89.719542
5/5/2010 3:02:02 PM,0.077,47.782,1.193,30.290694,-89.719501
5/5/2010 3:02:03 PM,0.531,43.256,1.219,30.290605,-89.719460
5/5/2010 3:02:04 PM,0.791,54.236,1.639,30.290512,-89.719419
5/5/2010 3:02:05 PM,0.907,56.804,1.616,30.290418,-89.719378
5/5/2010 3:02:06 PM,1.012,71.742,1.817,30.290322,-89.719338
5/5/2010 3:02:07 PM,0.868,71.193,1.765,30.290225,-89.719297
5/5/2010 3:02:08 PM,0.232,54.765,1.235,30.290126,-89.719257
5/5/2010 3:02:09 PM,0.376,48.370,0.963,30.290027,-89.719216
5/5/2010 3:02:10 PM,1.166,67.667,1.723,30.289927,-89.719176
5/5/2010 3:02:11 PM,0.868,73.624,2.295,30.289827,-89.719135
5/5/2010 3:02:12 PM,0.503,80.331,3.029,30.289726,-89.719096
5/5/2010 3:02:13 PM,0.763,60.338,2.166,30.289625,-89.719055
5/5/2010 3:02:14 PM,1.774,37.486,1.442,30.289523,-89.719015
5/5/2010 3:02:15 PM,0.116,16.281,0.753,30.289421,-89.718976
5/5/2010 3:02:16 PM,0.376,15.389,0.650,30.289321,-89.718938
5/5/2010 3:02:17 PM,0.531,10.462,0.760,30.289224,-89.718905
5/5/2010 3:02:18 PM,0.425,6.818,0.647,30.289119,-89.718871
5/5/2010 3:02:19 PM,0.387,4.604,0.488,30.289017,-89.718840
5/5/2010 3:02:29 PM,0.801,1.645,0.727,30.287959,-89.718648
5/5/2010 3:02:55 PM,0.425,1.528,0.663,30.285283,-89.718202
5/5/2010 3:02:57 PM,0.984,2.644,0.824,30.285060,-89.718168
5/5/2010 3:04:03 PM,0.492,0.607,0.656,30.275812,-89.718645
5/5/2010 3:04:04 PM,1.592,1.861,1.629,30.275660,-89.718637
5/5/2010 3:04:05 PM,0.569,1.548,1.574,30.275509,-89.718630
5/5/2010 3:04:06 PM,1.996,1.587,0.967,30.275359,-89.718622
5/5/2010 3:04:07 PM,1.360,1.381,0.970,30.275209,-89.718614
5/5/2010 3:04:10 PM,1.139,1.606,0.789,30.274757,-89.718591
5/5/2010 3:04:11 PM,0.984,0.793,0.718,30.274612,-89.718587
5/5/2010 3:04:12 PM,0.541,0.793,0.828,30.274458,-89.718576
5/5/2010 3:05:44 PM,0.945,1.029,0.695,30.261502,-89.721413
5/5/2010 3:05:45 PM,1.111,0.646,0.782,30.261481,-89.721413
5/5/2010 3:05:46 PM,1.514,1.068,0.786,30.261473,-89.721413
5/5/2010 3:10:31 PM,5.761,0.000,0.055,30.229111,-89.691248
5/5/2010 3:11:42 PM,0.503,0.441,0.659,30.228147,-89.679818
5/5/2010 3:11:43 PM,0.801,0.147,0.650,30.228147,-89.679818
5/5/2010 3:15:08 PM,5.944,0.166,0.023,30.220566,-89.685419
5/5/2010 3:15:54 PM,4.490,0.000,0.074,30.215294,-89.690049
5/5/2010 3:59:59 PM,0.155,0.460,0.647,30.031345,-89.927276
5/5/2010 4:00:00 PM,0.271,0.333,0.695,30.031327,-89.927328
5/5/2010 4:00:59 PM,10.153,1.087,0.598,30.031260,-89.927525
5/5/2010 4:01:00 PM,20.372,3.428,1.183,30.031260,-89.927525
5/5/2010 4:01:01 PM,14.782,1.773,0.944,30.031260,-89.927525
5/5/2010 4:01:02 PM,14.026,3.350,1.002,30.031260,-89.927525
5/5/2010 4:01:03 PM,14.836,3.546,0.624,30.031260,-89.927525
5/5/2010 4:01:04 PM,10.340,2.449,0.614,30.031260,-89.927525
5/5/2010 4:01:05 PM,4.847,0.813,0.407,30.031260,-89.927525
5/5/2010 4:01:06 PM,5.732,0.480,0.359,30.031260,-89.927525
5/5/2010 4:01:09 PM,4.140,1.734,0.184,30.031260,-89.927525
5/5/2010 4:01:10 PM,4.477,0.940,0.310,30.031259,-89.927527
5/5/2010 4:01:11 PM,5.008,0.940,0.314,30.031256,-89.927538
5/5/2010 4:01:12 PM,6.041,0.294,0.346,30.031247,-89.927562
5/5/2010 4:01:13 PM,4.720,1.107,0.213,30.031235,-89.927598
5/5/2010 4:01:14 PM,5.732,0.901,0.411,30.031219,-89.927644
5/5/2010 4:01:15 PM,3.841,0.793,0.226,30.031200,-89.927699
5/5/2010 4:01:16 PM,3.957,0.813,0.291,30.031177,-89.927762
5/5/2010 4:09:28 PM,0.647,0.940,0.682,30.015255,-89.982987
5/5/2010 4:09:31 PM,1.542,1.048,0.850,30.015212,-89.983235
5/5/2010 4:09:32 PM,1.177,2.233,0.776,30.015197,-89.983318
5/5/2010 4:09:33 PM,1.188,0.313,0.750,30.015183,-89.983402
5/5/2010 4:10:28 PM,1.476,1.753,0.705,30.014281,-89.988527
5/5/2010 4:10:29 PM,1.149,1.087,0.895,30.014261,-89.988640
5/5/2010 4:10:30 PM,1.177,1.695,0.779,30.014240,-89.988753
5/5/2010 4:13:19 PM,0.039,1.107,1.009,30.011252,-90.009653
5/5/2010 4:13:20 PM,1.177,3.742,2.593,30.011252,-90.009653
5/5/2010 4:13:21 PM,1.255,3.634,2.971,30.011252,-90.009653
5/5/2010 4:13:22 PM,0.657,3.614,3.029,30.011252,-90.009653
5/5/2010 4:13:23 PM,0.763,3.742,2.858,30.011252,-90.009653
5/5/2010 4:13:24 PM,0.917,3.478,3.006,30.011252,-90.009653
5/5/2010 4:13:25 PM,0.907,3.095,3.000,30.011252,-90.009653
5/5/2010 4:13:26 PM,1.128,3.526,2.363,30.011252,-90.009653
5/5/2010 4:13:27 PM,1.188,2.175,3.061,30.011252,-90.009653
5/5/2010 4:13:28 PM,1.785,4.094,3.433,30.011252,-90.009653
5/5/2010 4:13:29 PM,1.177,3.830,4.270,30.011252,-90.009653
5/5/2010 4:13:30 PM,1.332,5.221,4.988,30.011252,-90.009653
5/5/2010 4:13:31 PM,2.526,4.133,5.201,30.011252,-90.009653
5/5/2010 4:13:32 PM,0.657,5.368,5.573,30.011252,-90.009653
5/5/2010 4:13:33 PM,2.653,7.709,6.048,30.011252,-90.009653
5/5/2010 4:13:34 PM,1.785,7.533,5.214,30.011252,-90.009653
5/5/2010 4:13:35 PM,2.277,6.768,4.009,30.011252,-90.009653
5/5/2010 4:13:36 PM,1.023,4.075,2.728,30.011252,-90.009653
5/5/2010 4:13:37 PM,0.801,3.340,2.043,30.011252,-90.009653
5/5/2010 4:13:38 PM,0.387,1.626,2.150,30.011252,-90.009654
5/5/2010 4:13:39 PM,1.476,2.283,2.224,30.011251,-90.009661
5/5/2010 4:13:40 PM,0.713,2.361,2.644,30.011248,-90.009679
5/5/2010 4:13:41 PM,0.763,0.940,1.901,30.011246,-90.009710
5/5/2010 4:13:42 PM,0.801,2.322,1.901,30.011242,-90.009749
5/5/2010 4:13:43 PM,0.685,3.281,1.891,30.011238,-90.009798
5/5/2010 4:13:44 PM,0.503,2.713,2.867,30.011232,-90.009855
5/5/2010 4:13:45 PM,1.332,1.822,3.869,30.011225,-90.009919
5/5/2010 4:13:46 PM,1.033,5.495,4.985,30.011218,-90.009990
5/5/2010 4:13:47 PM,2.537,8.649,8.321,30.011209,-90.010068
5/5/2010 4:13:48 PM,4.400,9.276,9.326,30.011200,-90.010153
5/5/2010 4:13:49 PM,2.730,11.872,9.330,30.011191,-90.010245
5/5/2010 4:13:50 PM,4.129,11.745,8.466,30.011179,-90.010341
5/5/2010 4:13:51 PM,3.560,10.285,7.794,30.011168,-90.010441
5/5/2010 4:13:52 PM,3.173,6.299,4.943,30.011156,-90.010544
5/5/2010 4:13:53 PM,0.967,4.496,3.779,30.011144,-90.010649
5/5/2010 4:13:54 PM,1.476,2.586,2.538,30.011133,-90.010756
5/5/2010 4:13:55 PM,0.608,1.381,1.264,30.011122,-90.010863
5/5/2010 4:13:56 PM,0.647,1.900,0.950,30.011111,-90.010967
5/5/2010 4:13:57 PM,0.763,1.215,0.918,30.011099,-90.011069
5/5/2010 4:13:58 PM,0.387,1.381,0.976,30.011088,-90.011169
5/5/2010 4:13:59 PM,0.155,1.401,0.879,30.011077,-90.011272
5/5/2010 4:14:00 PM,0.387,1.381,0.766,30.011066,-90.011379
5/5/2010 4:14:12 PM,0.155,0.166,0.708,30.010921,-90.012768
5/5/2010 4:14:13 PM,0.453,0.754,0.921,30.010925,-90.012910
5/5/2010 4:14:43 PM,0.541,1.381,0.821,30.010471,-90.016930
5/5/2010 4:14:44 PM,0.696,3.242,4.076,30.010458,-90.017058
5/5/2010 4:14:45 PM,2.885,6.827,4.917,30.010444,-90.017185
5/5/2010 4:14:46 PM,1.863,5.417,2.596,30.010430,-90.017313
5/5/2010 4:14:47 PM,0.309,1.293,0.689,30.010416,-90.017439
5/5/2010 4:19:17 PM,0.116,0.294,0.689,30.005958,-90.035716
5/5/2010 4:19:18 PM,0.116,0.813,0.815,30.005958,-90.035716
5/5/2010 4:19:19 PM,1.310,0.147,0.744,30.005958,-90.035716
5/5/2010 4:19:20 PM,0.155,0.147,0.666,30.005958,-90.035716
5/5/2010 4:19:24 PM,0.193,0.460,0.941,30.005958,-90.035716
5/5/2010 4:19:25 PM,0.077,1.107,1.468,30.005958,-90.035716
5/5/2010 4:19:26 PM,0.116,1.273,1.784,30.005958,-90.035716
5/5/2010 4:19:27 PM,0.608,0.627,1.076,30.005958,-90.035716
5/5/2010 4:19:28 PM,0.309,0.646,0.866,30.005958,-90.035716
5/5/2010 4:19:29 PM,0.232,0.646,0.837,30.005958,-90.035716
5/5/2010 4:19:40 PM,0.907,0.294,0.960,30.005958,-90.035716
5/5/2010 3:58:44 PM,6.906,0.000,0.042,30.034613,-89.917288
5/5/2010 4:29:15 PM,0.155,1.195,0.760,30.005956,-90.035716
5/5/2010 4:29:16 PM,0.868,0.646,0.899,30.005956,-90.035716
5/5/2010 4:29:17 PM,0.791,0.960,1.183,30.005956,-90.035716
5/5/2010 4:29:18 PM,0.309,0.627,1.015,30.005956,-90.035716
5/5/2010 4:29:19 PM,0.376,0.754,0.763,30.005956,-90.035716
5/5/2010 4:29:36 PM,1.979,1.528,1.778,30.005956,-90.035716
5/5/2010 4:29:37 PM,2.189,2.008,2.269,30.005956,-90.035716
5/5/2010 4:29:38 PM,1.747,1.861,2.114,30.005956,-90.035716
5/5/2010 4:29:39 PM,4.357,3.428,2.460,30.005956,-90.035716
5/5/2010 4:29:40 PM,2.266,3.281,2.370,30.005956,-90.035716
5/5/2010 4:29:41 PM,0.907,2.419,2.101,30.005956,-90.035716
5/5/2010 4:29:42 PM,0.531,0.627,0.837,30.005956,-90.035716
5/5/2010 4:30:27 PM,0.309,1.107,1.539,30.005956,-90.035718
5/5/2010 4:30:28 PM,0.271,1.734,1.759,30.005956,-90.035718
5/5/2010 4:30:29 PM,0.193,1.459,1.216,30.005956,-90.035718
5/5/2010 4:30:30 PM,0.415,0.313,0.692,30.005956,-90.035718
5/5/2010 4:30:33 PM,0.415,0.166,0.692,30.005956,-90.035718
5/5/2010 4:30:35 PM,0.713,1.342,0.734,30.005956,-90.035718
5/5/2010 4:30:36 PM,0.193,0.294,0.727,30.005956,-90.035718
5/5/2010 4:30:38 PM,0.232,0.646,0.731,30.005956,-90.035718
5/5/2010 4:30:42 PM,0.232,0.313,0.689,30.005956,-90.035718
5/5/2010 4:30:43 PM,2.400,2.028,0.721,30.005956,-90.035718
5/5/2010 4:30:44 PM,0.945,1.675,1.031,30.005956,-90.035718
5/5/2010 4:30:45 PM,0.801,0.754,0.815,30.005956,-90.035718
5/5/2010 4:30:46 PM,1.736,1.695,0.992,30.005956,-90.035718
5/5/2010 4:30:47 PM,1.409,2.155,1.481,30.005956,-90.035718
5/5/2010 4:30:48 PM,0.541,0.960,1.141,30.005956,-90.035718
5/5/2010 4:30:49 PM,0.647,1.734,1.329,30.005956,-90.035718
5/5/2010 4:30:50 PM,0.945,0.901,1.216,30.005956,-90.035718
5/5/2010 4:30:51 PM,0.387,1.126,1.089,30.005957,-90.035719
5/5/2010 4:30:52 PM,1.255,0.921,1.051,30.005958,-90.035721
5/5/2010 4:30:53 PM,0.879,1.273,1.083,30.005959,-90.035724
5/5/2010 4:30:54 PM,0.464,1.107,1.080,30.005961,-90.035729
5/5/2010 4:30:55 PM,1.177,2.380,1.025,30.005963,-90.035735
5/5/2010 4:30:56 PM,0.647,1.234,0.853,30.005965,-90.035743
5/5/2010 4:30:57 PM,1.282,2.067,1.115,30.005967,-90.035753
5/5/2010 4:30:58 PM,0.984,0.921,1.164,30.005970,-90.035768
5/5/2010 4:30:59 PM,0.956,1.126,1.287,30.005972,-90.035787
5/5/2010 4:31:00 PM,0.464,1.234,1.245,30.005972,-90.035811
5/5/2010 4:31:01 PM,1.360,2.086,0.860,30.005971,-90.035833
5/5/2010 4:31:02 PM,0.868,3.125,1.141,30.005968,-90.035848
5/5/2010 4:31:03 PM,0.657,1.656,0.841,30.005967,-90.035855
5/5/2010 4:31:04 PM,0.348,0.646,0.960,30.005966,-90.035857
5/5/2010 4:31:08 PM,0.271,1.234,0.950,30.005966,-90.035857
5/5/2010 4:31:09 PM,0.763,1.753,1.432,30.005966,-90.035857
5/5/2010 4:31:10 PM,1.255,1.273,1.784,30.005966,-90.035857
5/5/2010 4:31:11 PM,2.720,2.694,2.696,30.005966,-90.035857
5/5/2010 4:31:12 PM,1.332,3.850,2.948,30.005966,-90.035857
5/5/2010 4:31:13 PM,2.305,3.262,2.770,30.005966,-90.035857
5/5/2010 4:31:14 PM,1.940,2.527,2.140,30.005966,-90.035861
5/5/2010 4:31:15 PM,2.470,3.409,2.114,30.005964,-90.035866
5/5/2010 4:31:16 PM,1.912,3.908,1.998,30.005962,-90.035873
5/5/2010 4:31:17 PM,2.941,2.674,1.568,30.005961,-90.035881
5/5/2010 4:31:18 PM,0.735,1.734,1.700,30.005959,-90.035887
5/5/2010 4:31:19 PM,1.525,2.194,1.629,30.005957,-90.035892
5/5/2010 4:31:20 PM,1.371,2.028,1.409,30.005956,-90.035896
5/5/2010 4:31:21 PM,1.149,2.841,1.555,30.005956,-90.035898
5/5/2010 4:31:22 PM,2.642,2.361,1.985,30.005955,-90.035899
5/5/2010 4:31:23 PM,3.162,2.341,2.218,30.005955,-90.035899
5/5/2010 4:31:24 PM,2.559,3.889,2.499,30.005955,-90.035900
5/5/2010 4:31:25 PM,2.316,3.242,2.677,30.005954,-90.035901
5/5/2010 4:31:26 PM,1.680,1.420,1.536,30.005954,-90.035903
5/5/2010 4:31:27 PM,1.437,2.047,0.931,30.005953,-90.035906
5/5/2010 4:31:28 PM,1.736,1.087,0.676,30.005952,-90.035910
5/5/2010 4:31:30 PM,0.647,1.401,0.692,30.005949,-90.035918
5/5/2010 4:31:32 PM,0.387,1.842,0.766,30.005943,-90.035935
5/5/2010 4:31:33 PM,1.697,1.753,1.355,30.005939,-90.035949
5/5/2010 4:31:34 PM,0.608,1.126,1.232,30.005933,-90.035965
5/5/2010 4:31:35 PM,1.553,1.234,0.679,30.005927,-90.035982
5/5/2010 4:31:36 PM,0.387,0.754,0.753,30.005921,-90.035998
5/5/2010 4:31:37 PM,1.072,3.095,1.733,30.005913,-90.036014
5/5/2010 4:31:38 PM,1.564,2.194,1.901,30.005901,-90.036028
5/5/2010 4:31:39 PM,1.332,2.655,1.678,30.005884,-90.036040
5/5/2010 4:31:40 PM,1.072,1.401,1.458,30.005864,-90.036045
5/5/2010 4:31:41 PM,1.293,1.548,1.503,30.005846,-90.036047
5/5/2010 4:31:42 PM,1.514,1.920,1.526,30.005830,-90.036064
5/5/2010 4:31:43 PM,2.653,1.939,2.538,30.005810,-90.036056
5/5/2010 4:31:44 PM,1.729,5.015,2.709,30.005644,-90.036024
5/5/2010 4:31:55 PM,0.829,1.440,1.157,30.005597,-90.036046
5/5/2010 4:31:56 PM,0.348,1.273,1.329,30.005584,-90.036054
5/5/2010 4:31:57 PM,0.984,1.695,1.148,30.005573,-90.036064
5/5/2010 4:31:58 PM,0.531,1.254,1.070,30.005567,-90.036075
5/5/2010 4:31:59 PM,0.907,0.940,0.860,30.005563,-90.036086
5/5/2010 4:32:00 PM,0.752,1.362,0.805,30.005559,-90.036097
5/5/2010 4:32:01 PM,0.503,1.675,0.934,30.005553,-90.036111
5/5/2010 4:32:02 PM,0.492,1.420,1.439,30.005544,-90.036131
5/5/2010 4:32:03 PM,1.072,2.841,2.321,30.005533,-90.036156
5/5/2010 4:32:04 PM,0.657,3.389,3.197,30.005523,-90.036190
5/5/2010 4:32:05 PM,1.332,3.223,2.441,30.005509,-90.036228
5/5/2010 4:32:06 PM,1.890,2.341,1.885,30.005493,-90.036270
5/5/2010 4:32:07 PM,1.514,1.861,1.536,30.005476,-90.036316
5/5/2010 4:32:08 PM,0.868,1.587,1.135,30.005457,-90.036365
5/5/2010 4:32:09 PM,0.425,2.194,0.769,30.005436,-90.036419
5/5/2010 4:36:24 PM,1.321,1.234,0.828,30.000163,-90.058719
5/5/2010 4:36:25 PM,0.619,2.263,1.804,30.000163,-90.058719
5/5/2010 4:36:26 PM,0.956,2.008,2.470,30.000163,-90.058719
5/5/2010 4:36:27 PM,1.409,2.028,2.024,30.000163,-90.058719
5/5/2010 4:36:28 PM,1.033,2.508,2.340,30.000163,-90.058719
5/5/2010 4:36:29 PM,1.033,2.047,2.644,30.000163,-90.058719
5/5/2010 4:36:30 PM,0.763,3.242,3.052,30.000163,-90.058719
5/5/2010 4:36:31 PM,1.177,4.153,3.469,30.000163,-90.058720
5/5/2010 4:36:32 PM,0.724,2.047,2.757,30.000163,-90.058720
5/5/2010 4:36:33 PM,1.476,1.567,3.065,30.000163,-90.058720
5/5/2010 4:36:34 PM,1.968,3.673,2.399,30.000163,-90.058720
5/5/2010 4:36:35 PM,0.619,2.361,1.713,30.000163,-90.058720
5/5/2010 4:36:36 PM,1.437,2.655,1.707,30.000164,-90.058720
5/5/2010 4:36:37 PM,2.189,1.401,1.377,30.000164,-90.058720
5/5/2010 4:36:38 PM,1.100,0.313,1.235,30.000164,-90.058720
5/5/2010 4:36:39 PM,1.476,2.008,1.151,30.000164,-90.058720
5/5/2010 4:36:40 PM,0.735,1.293,0.789,30.000164,-90.058720
5/5/2010 4:36:41 PM,0.945,1.146,0.682,30.000164,-90.058720
5/5/2010 4:36:54 PM,1.553,2.155,1.768,29.999828,-90.059169
5/5/2010 4:36:55 PM,3.078,8.052,6.077,29.999776,-90.059237
5/5/2010 4:36:56 PM,3.830,7.454,6.420,29.999722,-90.059307
5/5/2010 4:36:57 PM,2.924,3.878,4.083,29.999665,-90.059377
5/5/2010 4:36:58 PM,2.382,2.948,2.622,29.999605,-90.059446
5/5/2010 4:36:59 PM,0.619,0.754,1.174,29.999541,-90.059512
5/5/2010 4:37:00 PM,1.166,0.832,0.650,29.999473,-90.059577
5/5/2010 4:37:25 PM,0.503,1.459,0.705,29.997344,-90.061368
5/5/2010 4:37:26 PM,0.879,1.881,0.847,29.997254,-90.061446
5/5/2010 4:37:27 PM,0.647,1.567,0.679,29.997164,-90.061523
5/5/2010 4:37:30 PM,0.984,0.480,0.782,29.996883,-90.061760
5/5/2010 4:37:31 PM,1.437,0.754,0.776,29.996787,-90.061839
5/5/2010 4:37:32 PM,0.193,1.440,0.802,29.996692,-90.061917
5/5/2010 4:39:16 PM,0.531,1.587,1.416,29.991797,-90.066948
5/5/2010 4:39:17 PM,0.724,1.567,1.843,29.991691,-90.066940
5/5/2010 4:39:18 PM,0.453,1.440,1.581,29.991585,-90.066932
5/5/2010 4:39:19 PM,0.309,2.596,1.115,29.991479,-90.066924
5/5/2010 4:40:59 PM,0.077,0.627,0.666,29.983938,-90.071339
5/5/2010 4:41:22 PM,0.232,2.616,1.629,29.981930,-90.073118
5/5/2010 4:41:23 PM,0.193,2.469,0.996,29.981843,-90.073195
5/5/2010 4:41:24 PM,0.271,1.656,1.054,29.981758,-90.073271
5/5/2010 4:42:14 PM,0.569,0.754,1.122,29.977189,-90.077354
5/5/2010 4:42:15 PM,0.763,0.333,0.876,29.977098,-90.077435
5/5/2010 4:42:30 PM,0.647,0.480,0.766,29.975756,-90.078627
5/5/2010 4:42:31 PM,0.492,0.460,0.653,29.975665,-90.078706
5/5/2010 4:42:32 PM,0.193,1.068,0.883,29.975577,-90.078783
5/5/2010 4:42:33 PM,0.309,1.293,1.199,29.975496,-90.078854
5/5/2010 4:42:34 PM,0.232,1.107,1.183,29.975424,-90.078917
5/5/2010 4:42:35 PM,0.608,1.254,1.342,29.975350,-90.078978
5/5/2010 4:42:36 PM,0.453,1.401,1.251,29.975283,-90.079036
5/5/2010 4:42:37 PM,0.492,0.940,1.203,29.975216,-90.079094
5/5/2010 4:42:38 PM,0.763,1.714,1.409,29.975150,-90.079152
5/5/2010 4:42:39 PM,0.116,0.813,0.873,29.975085,-90.079208
5/5/2010 4:43:04 PM,0.531,1.107,0.798,29.974197,-90.079987
5/5/2010 4:43:05 PM,1.957,0.793,0.647,29.974168,-90.080011
5/5/2010 4:43:06 PM,0.116,0.793,0.650,29.974134,-90.080042
5/5/2010 4:43:07 PM,0.945,0.313,0.659,29.974096,-90.080077
5/5/2010 4:43:08 PM,0.569,0.940,0.682,29.974052,-90.080116
5/5/2010 4:43:09 PM,0.868,0.499,0.857,29.974003,-90.080159
5/5/2010 4:43:10 PM,0.453,1.714,0.811,29.973949,-90.080205
5/5/2010 4:44:10 PM,0.685,3.056,1.471,29.968939,-90.084680
5/5/2010 4:44:11 PM,0.541,2.821,2.382,29.968868,-90.084750
5/5/2010 4:44:12 PM,0.541,3.389,2.234,29.968793,-90.084820
5/5/2010 4:44:13 PM,0.647,2.322,1.839,29.968716,-90.084888
5/5/2010 4:44:14 PM,0.763,1.401,1.174,29.968636,-90.084954
5/5/2010 4:44:22 PM,0.232,5.476,0.207,29.967960,-90.085446
5/5/2010 4:44:23 PM,0.155,4.535,0.210,29.967885,-90.085510
5/5/2010 4:44:24 PM,0.000,3.340,0.168,29.967812,-90.085572
5/5/2010 4:44:25 PM,0.077,3.428,0.091,29.967740,-90.085634
5/5/2010 4:44:31 PM,0.337,3.722,0.175,29.967332,-90.085987
5/5/2010 4:44:32 PM,0.309,5.916,0.362,29.967263,-90.086044